date,batt_volt,AirTemp_C,Solar_kW,RH,Manual_BP,StationID,WS_ms,PTemp,WS_15min_max,Prog_Sig,Solar_Raw,Bar_mbar,Solar_MJ,Max_WS_2min,Pressure_Raw,Rain_mm,WD_15min_ave,Max_AirTemp_1min,WindDir,WS_15min_med,WS_15min_ave,Elevation_Correction
2020-06-01T00:00:21Z,12.9756,10.16933,0.003374038,86.24653,0,1156,0.0,13.80154,0.0,43690,0.2361827,1010.703,1.687019e-05,0.0,1008.902,0,59.7913003308,10.3,293.0431,0.0,0.0,1.80078
2020-06-01T00:15:26Z,12.99216,10.40649,0.0009640189,87.26284,0,1156,0.0,13.3045,0.0,43690,0.06748133,1010.703,4.820094e-06,0.0,1008.902,0,288.99588552,10.34,317.4315,0.0,0.0,1.80078
2020-06-01T00:30:24Z,12.98664,12.60838,0.0,71.95119,0,1156,0.0,13.21187,0.0,43690,0.0,1010.703,0.0,0.0,1008.902,0,321.466144911,12.68,328.3749,0.0,0.0,1.80078
2020-06-01T00:45:22Z,12.98112,11.96475,0.0,75.40648,0,1156,0.0,13.3045,1.1956,43690,0.0,1010.703,0.0,0.039,1008.902,0,345.041968842,12.07,15.68157,0.0,0.0202958579882,1.80078
2020-06-01T01:00:26Z,12.98112,12.71001,0.0,65.71813,0,1156,0.0,13.46943,0.0784,43690,0.0,1010.703,0.0,0.039,1008.902,0,22.8842896272,12.71,261.632,0.0,0.00956941176471,1.80078
2020-06-01T01:15:24Z,12.97561,12.60838,0.0,64.2615,0,1156,0.0,13.65921,0.686,43690,0.0,1010.703,0.0,0.196,1008.902,0,11.8064438524,12.64,339.8955,0.0,0.0347928994083,1.80078
2020-06-01T01:30:23Z,12.97561,12.30351,0.0,65.00675,0,1156,0.8624,13.72924,1.5876,43690,0.0,1010.703,0.0,1.137,1008.902,0,39.1319695992,12.37,39.66089,0.6076,0.532911236686,1.80078
2020-06-01T01:45:28Z,12.97009,12.64226,0.0,61.82247,0,1156,0.7056,13.99131,1.3328,43690,0.0,1010.703,0.0,1.333,1008.902,0,42.3728215347,12.71,38.45832,0.7252,0.647952925882,1.80078
2020-06-01T02:00:26Z,12.96457,12.64226,0.0,61.24659,0,1156,0.686,14.30083,2.254,43690,0.0,1010.947,0.0,2.136,1009.146,0,31.7634761548,12.71,45.91428,0.8035999,0.813226018343,1.80078
2020-06-01T02:15:23Z,12.95906,12.57407,0.0,59.78945,0,1156,2.3324,14.56291,3.6652,43690,0.0,1010.947,0.0,2.176,1009.146,0,39.5939451128,12.64,24.17154,0.9408,1.13795975621,1.80078
2020-06-01T02:30:27Z,12.95865,12.40123,0.0,59.75162,0,1156,1.5288,14.68264,2.94,43690,0.0,1010.947,0.0,2.568,1009.146,0,35.5866278644,12.47,63.68357,1.1074,1.18084234412,1.80078
2020-06-01T02:45:25Z,12.95197,12.12988,0.0,60.36091,0,1156,1.7444,14.75494,3.0184,43690,0.0,1010.947,0.0,2.352,1009.146,0,31.7788547644,12.23,36.26668,0.8624,0.987190524852,1.80078
2020-06-01T03:00:28Z,12.95225,11.78851,0.0,62.35621,0,1156,0.686,14.61261,3.0968,43690,0.0,1011.697,0.0,1.842,1009.896,0,30.4576956673,11.92,46.67774,0.7644,0.951176462941,1.80078
2020-06-01T03:15:25Z,12.95838,11.59031,0.0,61.00732,0,1156,3.6456,14.42057,2.9204,43690,0.0,1011.697,0.0,2.822,1009.896,0,34.1057745664,11.72,35.01772,0.8624,1.01850413314,1.80078
2020-06-01T03:30:29Z,12.95904,11.25334,0.0,60.67067,0,1156,4.0376,14.13365,4.0376,43690,0.0,1011.697,0.0,3.606,1009.896,0,27.8453762359,11.35,22.1995,0.9211999,1.13495528765,1.80078
2020-06-01T03:45:26Z,12.96457,10.84687,0.0,62.16122,0,1156,2.3716,13.75409,3.4104,43690,0.0,1011.697,0.0,3.234,1009.896,0,36.4504972058,10.95,42.76354,0.9799999,1.13285679704,1.80078
2020-06-01T04:00:28Z,12.97009,10.64362,0.0,63.55011,0,1156,0.6076,13.54172,3.332,43690,0.0,1011.923,0.0,3.332,1010.122,0,39.7229693691,10.75,46.03454,1.1172,1.27930352294,1.80078
2020-06-01T04:15:30Z,12.97561,10.33874,0.0,64.70187,0,1156,0.6664,13.28191,3.5476,43690,0.0,1011.923,0.0,3.548,1010.122,0,39.0419046542,10.41,58.51725,0.9799999,1.10425742176,1.80078
2020-06-01T04:30:26Z,12.98112,10.27099,0.0,64.97288,0,1156,0.1568,13.04695,3.1164,43690,0.0,1011.923,0.0,3.116,1010.122,0,36.2760343417,10.3,42.04199,1.2544,1.33155948797,1.80078
2020-06-01T04:49:04Z,12.99216,9.728981,0.0,67.44578,0,1156,2.0972,12.71936,3.2536,43690,0.0,1011.923,0.0,2.979,1010.122,0,36.7941147178,9.929999,27.92377,1.2152,1.22656050573,1.80078
2020-06-01T05:04:02Z,12.99263,9.561394,0.0,66.26253,0,1156,1.1564,12.41887,4.3904,43690,0.0,1011.77,0.0,1.862,1009.969,0,29.73662416,9.63,12.62748,0.8624,1.0779999964,1.80078
2020-06-01T05:19:01Z,13.00373,9.324829,0.0,66.39881,0,1156,0.7448,12.11614,2.842,43690,0.0,1011.77,0.0,2.842,1009.969,0,31.5503750348,9.46,11.11232,0.7448,0.859453586275,1.80078
2020-06-01T05:34:03Z,13.00512,9.262031,0.0,66.33773,0,1156,0.8428,11.97832,3.332,43690,0.0,1011.77,0.0,2.979,1009.969,0,31.8892833828,9.36,53.23382,0.6664,0.841185874118,1.80078
2020-06-01T05:49:04Z,13.00692,9.066105,0.0,66.14436,0,1156,0.098,11.79306,3.43,43690,0.0,1011.77,0.0,2.764,1009.969,0,34.2334034942,9.17,41.78988,0.9015999,1.02853881941,1.80078
2020-06-01T06:04:00Z,13.01309,8.762738,0.0,67.09536,0,1156,0.9799999,11.65525,4.1552,43690,0.0,1012.248,0.0,3.41,1010.447,0,31.8576232085,8.929999,59.33059,0.5292,0.763472183432,1.80078
2020-06-01T06:19:03Z,13.02416,8.492035,0.0,68.21417,0,1156,0.4312,11.38188,3.1752,43690,0.0,1012.248,0.0,3.058,1010.447,0,32.0985059932,8.59,9.190782,0.7252,0.813284698235,1.80078
2020-06-01T06:34:04Z,13.02968,8.254826,0.0,66.85869,0,1156,0.196,11.06107,3.43,43690,0.0,1012.248,0.0,2.313,1010.447,0,27.6179649017,8.29,346.8197,0.7448,0.849948228235,1.80078
2020-06-01T06:49:06Z,13.04071,7.78041,0.0,69.46797,0,1156,0.9995999,10.74251,3.234,43690,0.0,1012.248,0.0,2.019,1010.447,0,36.0832899856,7.95,75.47508,0.8526,0.861592935294,1.80078
2020-06-01T07:04:03Z,13.04071,7.407658,0.0,70.89122,0,1156,0.8035999,10.42622,2.8224,43690,0.0,1012.502,0.0,1.882,1010.701,0,38.0700362765,7.577,48.72077,0.9408,1.00968993373,1.80078
2020-06-01T07:19:04Z,13.04714,7.174171,0.0,70.9307,0,1156,1.1172,10.20029,4.3708,43690,0.0,1012.502,0.0,1.823,1010.701,0,28.53582998,7.309001,47.35311,0.784,0.936418817059,1.80078
2020-06-01T07:34:06Z,13.05372,7.008553,0.0,70.90258,0,1156,1.0976,9.974369,2.6656,43690,0.0,1012.502,0.0,1.764,1010.701,0,31.954815447,7.11,11.26172,0.9408,1.00767058118,1.80078
2020-06-01T07:49:02Z,13.06499,6.670838,0.0,70.63328,0,1156,0.1372,9.660328,3.1752,43690,0.0,1012.502,0.0,1.254,1010.701,0,30.0083519367,6.738,33.83415,0.9211999,1.05109348343,1.80078
2020-06-01T08:04:04Z,13.07193,6.436691,0.0,71.04474,0,1156,1.8424,9.346294,3.1164,43690,0.0,1012.055,0.0,3.116,1010.254,0,31.5700128966,6.539,15.11328,0.784,0.819625877647,1.80078
2020-06-01T08:19:05Z,13.07818,6.203094,0.0009644806,71.76226,0,1156,0.8428,9.05711,2.0776,43690,0.06751365,1012.055,4.822403e-06,1.294,1010.254,0,38.2960971065,6.339,44.83802,0.882,0.989915280588,1.80078
2020-06-01T08:34:07Z,13.07826,6.169491,0.005305143,71.42373,0,1156,0.0588,8.810856,3.6848,43690,0.37136,1012.055,2.652572e-05,2.058,1010.254,0,33.1536253248,6.271,3.369492,0.8231999,0.992336454706,1.80078
2020-06-01T08:49:04Z,13.07826,6.033897,0.01302281,72.54238,0,1156,1.176,8.700154,2.3716,43690,0.9115963,1012.055,6.511402e-05,1.215,1010.254,0,30.7507077439,6.136,24.66949,0.7644,0.812762118343,1.80078
2020-06-01T09:04:07Z,13.0893,5.932205,0.01881106,72.20339,0,1156,0.7644,8.52393,2.7048,43690,1.316774,1012.675,9.405529e-05,1.47,1010.875,0,40.7968145359,6.136,21.54068,0.8035999,0.888225866471,1.80078
2020-06-01T09:19:04Z,13.08378,6.135594,0.03424578,71.76271,0,1156,0.4508,8.390629,1.8228,43690,2.397205,1012.675,0.0001712289,1.411,1010.875,0,39.4973890404,6.203,24.2122,0.7644,0.814385784024,1.80078
2020-06-01T09:34:07Z,13.07274,6.271187,0.1345715,70.33898,0,1156,1.2152,8.657222,2.4108,43690,9.420001,1012.675,0.0006728572,1.215,1010.875,0,35.0761892849,6.407,34.60949,0.7644,0.809710575882,1.80078
2020-06-01T09:49:09Z,13.05617,6.64407,0.1750754,68.54238,0,1156,0.7644,9.19041,3.5672,43690,12.25528,1012.675,0.000875377,2.92,1010.875,0,36.1696248236,6.712,34.24848,0.9015999,1.09771528529,1.80078
2020-06-01T10:04:05Z,13.04469,6.948646,0.2194128,67.5247,0,1156,2.3324,9.793629,2.7048,43690,15.35889,1012.838,0.001097064,2.332,1011.037,0,35.8569800195,7.05,38.00264,0.8035999,0.924679281657,1.80078
2020-06-01T10:19:07Z,13.04304,7.178886,0.2656777,66.76897,0,1156,0.8624,10.35844,3.038,43690,18.59744,1012.838,0.001328389,3.077,1011.037,0,28.6492897379,7.315001,32.43819,0.784,0.913590577059,1.80078
2020-06-01T10:34:10Z,13.02989,7.611882,0.3158229,64.79282,0,1156,0.7252,10.85547,3.5868,43690,22.1076,1012.838,0.001579115,2.019,1011.037,0,41.5089457813,7.714,40.97435,0.9015999,1.14106587059,1.80078
2020-06-01T10:49:07Z,13.01865,7.814335,0.3659156,64.24945,0,1156,2.842,11.42707,3.3712,43690,25.6141,1012.838,0.001829578,1.803,1011.037,0,33.4739775113,8.019999,0.09623863,0.8035999,1.02047572663,1.80078
2020-06-01T11:04:10Z,13.00761,8.458168,0.4150982,62.14845,0,1156,0.8428,12.02351,2.842,43690,29.05687,1013.478,0.002075491,1.607,1011.678,0,26.5275344579,8.559999,30.84447,0.784,0.834383511765,1.80078
2020-06-01T11:19:08Z,12.99371,9.023533,0.4632224,59.96659,0,1156,0.686,12.71936,2.2736,43690,32.42556,1013.478,0.002316112,1.019,1011.678,0,14.1304865072,9.13,354.3693,0.7252,0.65839762071,1.80078
2020-06-01T11:34:10Z,12.98121,9.221165,0.5109305,59.24832,0,1156,0.7644,13.35195,2.1756,43690,35.76513,1013.478,0.002554652,1.137,1011.678,0,11.9658664517,9.22,35.50021,0.7056,0.703870574706,1.80078
2020-06-01T11:49:08Z,12.9701,10.84691,0.5581672,59.21412,0,1156,0.686,13.99131,2.0776,43690,39.0717,1013.478,0.002790836,0.8430001,1011.678,0,15.8510638141,10.88,1.178524,0.6468,0.592870993491,1.80078
2020-06-01T12:04:10Z,12.95906,10.81303,0.6039581,58.94312,0,1156,0.0,14.75494,3.3908,43690,42.27707,1013.63,0.003019791,0.706,1011.83,0,359.800917686,10.81,346.4138,0.5194,0.52147529,1.80078
2020-06-01T12:19:08Z,12.93922,10.86709,0.6544371,59.97711,0,1156,0.6664,15.70157,3.0968,43690,45.8106,1013.63,0.003272186,1.96,1011.83,0,303.518162032,10.93,310.3732,0.8428,0.897308866272,1.80078
2020-06-01T12:34:12Z,12.92713,10.66046,0.7295202,54.11458,0,1156,1.2348,16.36353,3.1948,43690,51.06641,1013.63,0.003647601,1.882,1011.83,0,304.694593932,10.69,296.5994,1.029,1.14463999588,1.80078
2020-06-01T12:49:09Z,12.92159,9.8815,0.7555362,69.35323,0,1156,0.0196,16.58719,3.038,43690,52.88754,1013.63,0.003777681,0.137,1011.83,0,269.217115956,9.92,265.9436,0.0196,0.277879289349,1.80078
2020-06-01T13:04:11Z,12.91607,10.05082,0.784447,67.3214,0,1156,0.0784,16.93512,0.1176,43690,54.91129,1013.376,0.003922235,0.078,1011.575,0,263.232785992,10.12,267.6747,0.0196,0.0175247058824,1.80078
2020-06-01T13:19:13Z,12.91056,10.08468,0.8258859,65.69593,0,1156,0.0,17.31241,0.0784,43690,57.81202,1013.376,0.00412943,0.059,1011.575,0,267.972517369,10.22,261.3994,0.0,0.0103764705882,1.80078
2020-06-01T13:34:10Z,12.89847,10.61954,0.419171,66.97354,0,1156,0.0196,17.76652,0.0588,43690,29.34197,1013.376,0.002095855,0.059,1011.575,0,264.208177452,10.69,273.72,0.0,0.0105538461538,1.80078
2020-06-01T13:49:13Z,12.88979,9.763744,0.7664954,68.85678,0,1156,0.0392,18.07152,0.1372,43690,53.65468,1013.376,0.003832477,0.09800001,1011.575,0,260.173718179,9.87,259.3916,0.0,0.0160258823529,1.80078
2020-06-01T14:04:11Z,12.88413,10.77863,1.096398,68.11106,0,1156,0.0,18.27711,0.1176,43690,76.74788,1013.284,0.005481992,0.078,1011.483,0,257.152642396,10.85,267.3437,0.0196,0.0248189349112,1.80078
2020-06-01T14:19:14Z,12.88413,10.27083,0.361265,68.65269,0,1156,0.0196,18.55952,0.098,43690,25.28855,1013.284,0.001806325,0.059,1011.483,0,258.435573856,10.44,254.3166,0.0196,0.0264023529412,1.80078
2020-06-01T14:34:12Z,12.87862,10.84632,0.868959,68.38186,0,1156,0.0588,18.48045,0.5488,43690,60.82713,1013.284,0.004344795,0.451,1011.483,0,260.641234042,10.81,256.3115,0.0588,0.068773964497,1.80078
2020-06-01T14:49:15Z,12.88413,10.81247,1.005276,67.84022,0,1156,0.0392,18.32682,0.4116,43690,70.36931,1013.284,0.005026379,0.216,1011.483,0,260.354521885,10.91,267.0552,0.0588,0.0762094117647,1.80078
2020-06-01T15:04:13Z,12.88413,10.54165,0.8439228,65.67368,0,1156,0.0784,18.09637,0.4312,43690,59.0746,1013.446,0.004219614,0.431,1011.645,0,257.84838332,10.74,255.6866,0.0588,0.0772402366864,1.80078
2020-06-01T15:19:16Z,12.88413,10.71091,1.059291,67.5017,0,1156,0.0392,18.01956,0.392,43690,74.15035,1013.446,0.005296454,0.353,1011.645,0,260.527058896,10.85,259.5322,0.0588,0.0820894117647,1.80078
2020-06-01T15:34:15Z,12.88413,11.11714,1.053967,67.56942,0,1156,0.0392,18.14833,0.9604,43690,73.77769,1013.446,0.005269835,0.235,1011.645,0,258.73743899,11.22,257.6094,0.0784,0.110409467456,1.80078
2020-06-01T15:49:13Z,12.88413,11.55722,1.037071,64.99663,0,1156,0.098,18.37878,0.784,43690,72.59494,1013.446,0.005185354,0.49,1011.645,0,262.624551345,11.69,269.7472,0.0784,0.0991597633136,1.80078
2020-06-01T16:04:17Z,12.8731,11.01558,1.024061,64.86121,0,1156,0.1568,18.50756,0.6664,43690,71.6843,1012.552,0.005120307,0.608,1010.752,0,263.024881155,11.15,257.2729,0.0882,0.117484705882,1.80078
2020-06-01T16:19:14Z,12.8731,11.59107,0.9999772,64.38728,0,1156,0.2744,18.55952,0.882,43690,69.99841,1012.552,0.004999886,0.882,1010.752,0,261.814691752,11.59,269.6029,0.0588,0.111685207101,1.80078
2020-06-01T16:34:17Z,12.87862,11.59107,1.056334,63.50712,0,1156,0.1372,18.55952,0.9408,43690,73.94341,1012.552,0.005281672,0.431,1010.752,0,264.214412347,11.56,271.8863,0.1372,0.179974117647,1.80078
2020-06-01T16:49:15Z,12.87862,11.52337,1.02936,64.15032,0,1156,0.0784,18.50756,5.9976,43690,72.0552,1012.552,0.0051468,0.372,1010.752,0,264.796967299,11.73,258.4266,0.1764,0.31475976213,1.80078
2020-06-01T17:04:14Z,12.8731,11.72648,0.9701129,63.71024,0,1156,0.0588,18.6883,0.9799999,43690,67.9079,1012.471,0.004850564,0.608,1010.67,0,259.224355703,11.86,263.9787,0.0784,0.117252070414,1.80078
2020-06-01T17:19:18Z,12.86208,12.16657,1.03803,57.88762,0,1156,0.1764,19.02493,1.3328,43690,72.66213,1012.471,0.005190152,0.627,1010.67,0,260.712647475,12.34,255.5664,0.1372,0.201188234706,1.80078
2020-06-01T17:34:16Z,12.86208,11.76033,1.118472,61.30671,0,1156,0.0588,19.28474,9.133599,43690,78.29302,1012.471,0.005592358,3.528,1010.67,0,262.695734053,12.23,263.2096,0.294,1.10247097515,1.80078
2020-06-01T17:49:18Z,12.86208,12.60664,1.071267,58.15844,0,1156,7.056,19.3367,9.290401,43690,74.98866,1012.471,0.005356333,9.29,1010.67,0,264.150532901,12.67,261.9117,0.2744,0.992797651765,1.80078
2020-06-01T18:04:16Z,12.86208,12.87746,0.6083676,57.5491,0,1156,1.0584,19.39093,9.4668,43690,42.58574,1011.984,0.003041838,3.469,1010.183,0,265.767220805,12.84,268.0406,0.7644,1.71737749704,1.80078
2020-06-01T18:19:20Z,12.86208,12.97902,0.8439114,57.85377,0,1156,0.4508,19.57393,8.937599,43690,59.0738,1011.984,0.004219557,0.706,1010.183,0,263.724881212,13.15,253.6916,0.49,1.02173645529,1.80078
2020-06-01T18:34:18Z,12.86208,12.80976,0.9161642,55.95804,0,1156,1.9012,19.653,1.568,43690,64.13149,1011.984,0.004580821,1.156,1010.183,0,264.353149221,12.91,274.9628,0.3332,0.409164492899,1.80078
2020-06-01T18:49:16Z,12.85656,12.91132,0.9007502,57.21057,0,1156,0.4508,19.70496,1.9012,43690,63.05252,1011.984,0.004503751,0.9020001,1010.183,0,265.897901353,13.08,252.8264,0.294,0.397914789941,1.80078
2020-06-01T19:04:19Z,12.85105,13.08058,0.2996078,57.95533,0,1156,0.1176,19.75692,8.212401,43690,20.97255,1011.984,0.001498039,0.666,1010.183,0,269.302885804,13.08,271.694,0.3724,0.731310581765,1.80078
2020-06-01T19:19:18Z,12.86208,12.57279,0.8265708,59.00475,0,1156,0.9015999,19.46774,8.3888,43690,57.85996,1011.984,0.004132854,1.901,1010.183,0,269.310148441,12.98,272.2949,0.3136,0.67869348284,1.80078
2020-06-01T19:34:16Z,12.86208,12.84361,0.769732,61.67909,0,1156,0.4508,19.41578,2.352,43690,53.88124,1011.984,0.00384866,1.45,1010.183,0,268.179588404,12.81,267.7282,0.3724,0.442217748521,1.80078
2020-06-01T19:49:19Z,12.86208,13.18214,0.7451661,57.21057,0,1156,2.2932,19.39093,2.2932,43690,52.16162,1011.984,0.00372583,1.294,1010.183,0,267.384936004,13.15,262.8731,0.2744,0.345651764118,1.80078
2020-06-01T20:04:18Z,12.86208,13.04673,0.8121202,59.34327,0,1156,0.1764,19.46774,1.4896,43690,56.84842,1011.821,0.004060601,0.608,1010.02,0,267.77814562,13.08,259.7726,0.2548,0.303742009467,1.80078
2020-06-01T20:19:16Z,12.8731,13.38525,0.8458382,55.5518,0,1156,0.0392,19.60103,2.2148,43690,59.20867,1011.821,0.004229191,0.216,1010.02,0,270.550226131,13.83,260.3494,0.1176,0.185214201183,1.80078
2020-06-01T20:34:20Z,12.88413,11.42181,0.2475859,67.02777,0,1156,0.2548,19.73207,8.859199,43690,17.33101,1011.821,0.001237929,1.47,1010.02,0,274.352392942,11.66,271.2614,0.245,0.658905880588,1.80078
2020-06-01T20:49:18Z,12.90067,10.98173,0.7027778,68.68654,0,1156,0.1568,18.60923,0.9015999,43690,49.19445,1011.821,0.003513889,0.353,1010.02,0,278.772709797,10.95,287.6534,0.1176,0.146478105917,1.80078
2020-06-01T21:04:21Z,12.90618,10.67706,0.1883482,70.10834,0,1156,0.0588,17.9179,0.9995999,43690,13.18438,1011.902,0.0009417413,0.196,1010.102,0,279.493503452,10.95,277.799,0.1372,0.205223527647,1.80078
2020-06-01T21:19:18Z,12.91276,10.44217,0.1970405,72.17631,0,1156,0.0588,17.18589,0.3528,43690,13.79284,1011.902,0.0009852026,0.274,1010.102,0,283.070460894,10.51,285.0213,0.0392,0.0576402366864,1.80078
2020-06-01T21:34:17Z,12.9214,10.9983,0.1970742,68.74273,0,1156,0.0392,16.6369,0.4508,43690,13.79519,1011.902,0.000985371,0.157,1010.102,0,286.141628035,11.0,287.5065,0.0588,0.0628591715976,1.80078
2020-06-01T21:49:22Z,12.92709,9.81374,0.08576874,72.33321,0,1156,0.0588,16.21668,0.5292,43690,6.003812,1011.902,0.0004288437,0.059,1010.102,0,289.007281441,9.95,266.3281,0.0392,0.0622588235294,1.80078
2020-06-01T22:04:21Z,12.94364,9.712158,0.07275887,73.28141,0,1156,0.8035999,15.52987,3.136,43690,5.093122,1012.238,0.0003637944,1.019,1010.437,0,295.526726011,9.849999,323.7196,0.6076,0.598901766864,1.80078
2020-06-01T22:19:18Z,12.96063,9.44125,0.08674229,71.3173,0,1156,0.6468,14.68264,3.0968,43690,6.07196,1012.238,0.0004337114,3.097,1010.437,0,290.120425868,9.54,301.3833,0.7644,0.8824639,1.80078
2020-06-01T22:34:22Z,12.96974,9.761543,0.07133418,68.35861,0,1156,0.0,14.1585,2.8028,43690,4.993392,1012.238,0.0003566709,1.137,1010.437,0,289.426263427,9.83,320.0687,0.6566,0.662364697059,1.80078
2020-06-01T22:49:21Z,12.97008,10.03384,0.06169648,68.69914,0,1156,1.0584,13.94387,2.4304,43690,4.318754,1012.238,0.0003084824,1.901,1010.437,0,270.241902641,10.1,272.4069,0.4116,0.539405912426,1.80078
2020-06-01T23:04:20Z,12.97561,10.30486,0.09061778,69.78318,0,1156,0.9211999,13.6818,1.5288,43690,6.343244,1012.167,0.0004530889,1.529,1010.366,0,273.846466912,10.3,286.0683,0.7056,0.592870994675,1.80078
2020-06-01T23:19:19Z,12.97561,9.491852,0.03229463,71.34144,0,1156,1.1172,13.44684,1.2936,43690,2.260624,1012.167,0.0001614732,1.117,1010.366,0,280.387635742,9.53,282.2682,0.6272,0.602033125444,1.80078
2020-06-01T23:34:23Z,12.98664,9.051475,0.01446028,73.98372,0,1156,0.0,12.95432,1.2936,43690,1.01222,1012.167,7.230142e-05,1.137,1010.366,0,290.812330171,9.25,254.5609,0.539,0.536232936471,1.80078
2020-06-01T23:49:21Z,13.00363,8.646854,0.006266123,76.05306,0,1156,0.4116,12.34884,1.176,43690,0.4386286,1012.167,3.133062e-05,0.549,1010.366,0,292.694700452,8.849999,320.8111,0.3136,0.386317155621,1.80078
2020-06-02T00:04:20Z,13.02268,8.41774,0.002410194,79.0473,0,1156,0.0,11.72529,0.9995999,43690,0.1687136,1012.534,1.205097e-05,0.412,1010.733,0,301.61414825,8.45,290.5051,0.0,0.126878105917,1.80078
2020-06-02T00:19:20Z,13.04065,8.051293,0.0,81.0569,0,1156,0.0,11.15144,0.0196,43690,0.0,1012.534,0.0,0.0,1010.733,0,310.26247255,8.22,306.6628,0.0,0.000115976331361,1.80078
2020-06-02T00:34:24Z,13.04071,7.915958,0.0,82.81938,0,1156,0.0,10.92551,0.0,43690,0.0,1012.534,0.0,0.0,1010.733,0,350.130210889,7.95,88.25075,0.0,0.0,1.80078
2020-06-02T00:49:21Z,13.04071,7.882073,0.0,82.27719,0,1156,0.0,10.83288,0.0,43690,0.0,1012.534,0.0,0.0,1010.733,0,99.8828434081,7.984,114.572,0.0,0.0,1.80078
2020-06-02T01:04:25Z,13.04623,7.610977,0.0,83.32768,0,1156,0.0,10.65214,0.0196,43690,0.0,1012.584,0.0,0.0,1010.783,0,82.3099250241,7.713,25.69569,0.0,0.000115294117647,1.80078
2020-06-02T01:19:23Z,13.04623,7.882073,0.0,71.80617,0,1156,0.588,10.42622,0.8231999,43690,0.0,1012.584,0.0,0.706,1010.783,0,50.1430797708,7.984,65.82717,0.4704,0.410556211834,1.80078
2020-06-02T01:34:21Z,13.05274,8.291946,0.0,67.9815,0,1156,0.7644,10.20029,1.0584,43690,0.0,1012.584,0.0,1.058,1010.783,0,54.6768603931,8.389999,60.24938,0.5488,0.565848514793,1.80078
2020-06-02T01:49:25Z,13.05915,8.499718,0.0,66.73371,0,1156,0.8231999,10.01955,1.1368,43690,0.0,1012.584,0.0,1.117,1010.783,0,54.4234446111,8.53,53.97432,0.8624,0.843722325882,1.80078
2020-06-02T02:04:23Z,13.06499,7.890171,0.0,70.971,0,1156,0.7252,9.883999,1.1368,43690,0.0,1012.263,0.0,1.019,1010.462,0,51.7378357014,7.992001,55.85187,0.8231999,0.810674530178,1.80078
2020-06-02T02:19:22Z,13.065,7.483467,0.0,73.44516,0,1156,0.6076,9.728107,1.1368,43690,0.0,1012.263,0.0,0.9410001,1010.462,0,50.380939198,7.619001,50.50973,0.7056,0.744684008876,1.80078
2020-06-02T02:34:25Z,13.06546,7.111679,0.0,77.41229,0,1156,0.882,9.524777,1.0584,43690,0.0,1012.263,0.0,1.0,1010.462,0,56.2944787066,7.113,54.60175,0.686,0.696722345882,1.80078
2020-06-02T02:49:22Z,13.0667,6.676708,0.0,80.06564,0,1156,0.8428,9.346294,1.176,43690,0.0,1012.263,0.0,1.058,1010.462,0,46.6879085522,6.88,41.8287,0.8624,0.857528968047,1.80078
2020-06-02T03:04:24Z,13.07822,7.321541,0.0,74.81278,0,1156,0.784,9.145222,1.0584,43690,0.0,1012.659,0.0,0.96,1010.858,0,7.00777771269,7.288001,70.06062,0.5292,0.463828230588,1.80078
2020-06-02T03:19:22Z,13.07826,7.219925,0.0,74.8468,0,1156,0.784,9.122631,1.0976,43690,0.0,1012.659,0.0,0.98,1010.858,0,35.7142783753,7.254,31.4082,0.7644,0.648191694083,1.80078
2020-06-02T03:34:26Z,13.07826,7.084415,0.0,75.69438,0,1156,0.9211999,9.079701,1.1368,43690,0.0,1012.659,0.0,0.98,1010.858,0,31.823255321,7.22,41.61293,0.7644,0.757367038235,1.80078
2020-06-02T03:49:24Z,13.07274,7.627117,0.0,73.49152,0,1156,0.6272,9.235592,1.1564,43690,0.0,1012.659,0.0,1.0,1010.858,0,37.3509937686,7.661,58.65322,0.784,0.750714765089,1.80078
2020-06-02T04:04:26Z,13.06722,7.728813,0.0,72.91526,0,1156,0.8428,9.301113,1.0976,43690,0.0,1012.35,0.0,0.882,1010.549,0,54.5049873627,7.797001,69.91694,0.7252,0.730388223529,1.80078
2020-06-02T04:19:22Z,13.0718,7.727524,0.0,73.69293,0,1156,0.0,9.323704,1.0976,43690,0.0,1012.35,0.0,1.098,1010.549,0,56.6303738435,7.863,340.887,0.686,0.660587084024,1.80078
2020-06-02T04:34:25Z,13.07271,7.152493,0.0,77.08466,0,1156,0.9211999,9.235592,1.1564,43690,0.0,1012.35,0.0,0.96,1010.549,0,34.2730009712,7.288001,17.83422,0.7056,0.613364687059,1.80078
2020-06-02T04:49:28Z,13.0782,6.813477,0.0,80.10155,0,1156,0.686,9.05711,1.0192,43690,0.0,1012.35,0.0,0.9410001,1010.549,0,31.2066655139,6.915001,29.79588,0.4312,0.389809404118,1.80078
2020-06-02T05:04:24Z,13.07826,7.254238,0.0,76.74577,0,1156,0.5292,8.878628,1.0388,43690,0.0,1011.374,0.0,0.784,1009.573,0,32.4853207733,7.424,38.72509,0.3724,0.358134908876,1.80078
2020-06-02T05:19:27Z,13.07826,7.220341,0.0,77.01695,0,1156,0.196,8.833446,0.8231999,43690,0.0,1011.374,0.0,0.725,1009.573,0,48.8979340913,7.322001,77.32983,0.4508,0.393268232941,1.80078
2020-06-02T05:34:25Z,13.08378,7.084747,0.0,77.49152,0,1156,0.5488,8.745334,0.9799999,43690,0.0,1011.374,0.0,0.7640001,1009.573,0,45.7417443718,7.153,60.48237,0.49,0.442913607692,1.80078
2020-06-02T05:49:27Z,13.08378,7.288135,0.0,76.06779,0,1156,0.7252,8.657222,0.9408,43690,0.0,1011.374,0.0,0.6860001,1009.573,0,51.8571598809,7.322001,39.0861,0.5488,0.525510587647,1.80078
2020-06-02T06:04:29Z,13.08378,7.118645,0.0,75.52542,0,1156,0.0,8.612042,0.882,43690,0.0,1010.479,0.0,0.823,1008.678,0,50.1898211451,7.186,65.94576,0.3822,0.337235290588,1.80078
2020-06-02T06:19:26Z,13.08378,6.915253,0.0,75.59322,0,1156,0.0,8.52393,0.9408,43690,0.0,1010.479,0.0,0.804,1008.678,0,54.3803393294,7.051,44.52542,0.0,0.117368046154,1.80078
2020-06-02T06:34:28Z,13.0893,6.745762,0.0,76.61017,0,1156,0.0,8.435818,1.1368,43690,0.0,1010.479,0.0,0.0,1008.678,0,50.2435811381,6.78,6.402034,0.1764,0.335851757059,1.80078
2020-06-02T06:49:29Z,13.0893,6.0,0.0,80.77966,0,1156,0.294,8.345447,1.2152,43690,0.0,1010.479,0.0,1.078,1008.678,0,320.066061432,6.169,336.179,0.5488,0.500722338824,1.80078
2020-06-02T07:04:31Z,13.09482,6.135594,0.0,81.52542,0,1156,0.3332,8.279926,1.0192,43690,0.0,1010.642,0.0,0.039,1008.841,0,349.12426828,6.102,0.07220339,0.0,0.144463528824,1.80078